ONEWEB-0061, 45428

Orbit data source: Space-Track

ONEWEB-0061, 45428 is a payload satellite owned by One Web (UK) in LEO that was launched on Sat, 21 Mar 2020 UTC via a SOYUZ-2-1B launch vehicle from the Tyuratam Missile And Space Complex (TTMTR). Payload-class satellites include a variety of spacecraft equipped with specific instruments for various scientific and technological missions. These include communications satellites like Starlink; space stations such as the ISS; scientific satellites like the Hubble; Earth observation satellites from companies like Planet Labs, Umbra, and HawkEye 360; GPS; miniature CubeSats for education and research; and military/defense satellites.

Loading next visibility...
Identifier
45428, 2020-020E
Orbit
LEO
Country
Flag of UKUK
Related business
Manufacturer
One Web
Mission
Operational Commercial Communications
Bus & Motor
ARROW, Unknown motor
Mass
148 kg wet, ~140 kg dry
Launch date (UTC)
2020-03-21 (5 years ago)
Launch vehicle
SOYUZ-2-1B
Launch site
Tyuratam Missile And Space Complex (TTMTR)
Object type
Payload
Rocket body
Debris
Shape & HBR
Trap Box + 2 Pan, 2.5 m
Radar Cross Section
2.957 m², Large (>1 m²)

Expand to show TLE details & history
Last TLE update: 10 hours ago

TLE from 10 hours ago
0 ONEWEB-0061
1 45428U 20020E   25258.50023006  .00000163  00000-0  42531-3 0  9993
2 45428  87.8777  75.7655 0001631  88.9085 271.2230 13.11412927266623
Epoch: 2025-09-15T12:00Z
TLE epoch observation values (Epoch: 2025-09-15T12:00:19.877Z)
Latitude
0.00002°
Longitude
-99.02131°
Altitude
1,220.561 km
Speed
7.244 km/s
True Right ascension
05h 03m 03s
True Declination
0° 00' 00"
Sunlit
Object was in daylight at epoch
Visualization orbit readout
Latitude
Unknown
Longitude
Unknown
Altitude
Unknown
Speed
Unknown
Apparent Right ascension
Unknown
Apparent Declination
Unknown
Sunlit
N/A
Visualization observer readout
Local Sidereal Time
15:08:31
Azimuth
Unknown
Elevation
Unknown
Doppler factor
Unknown
Orbital elements
Apogee altitude
1,216.055 km
Perigee altitude
1,213.578 km
Semi-major axis
7,592.954 km
Eccentricity
0.00016
Inclination
87.8777°
RAAN
75.7655°
Arg. of periapsis
88.9085°
True anomaly
271.20431°
Mean anomaly
271.223°
Eccentric anomaly
271.21366°
Mean motion
3.2804 °/min
Orbital period
109.74 mins
BSTAR
0.00042531
Loading maneuver chart data...
Computing Atmospheric mass density...
Loading historical data...
Loading historical data...
Loading historical data...
Loading historical data...
Loading historical data...
Loading historical data...
Loading historical data...

Documentation

Showing up to 5 results
|